CAPE
0 0 0 0 0 0 0 0 0 0 0 0 0 0 0 0 0 0 0 0 0 0 0 0 0 0 0 0 0 0 0 0
0 0 0 0 0 3 5 0 4 0 0 0 0 0 0 0 0 0 0 0 0 0 0 0 0 0 0 0 0 0 0 0
0 0 0 0 0 0 0 0 0 0 0 0 0 0 0 0 0 0 0 0 0 0 0 0 0 0 0 0 0 0 0 0
0 0 0 0 0 0 0 0 0 0 0 0 0 0 0 0 0 0 0 0 0 0 0 0 0 0 0 0 0 0 0 0
0 0 0 0 0 0 0 0 0 0 0 0 0 0 0 0 0 0 0 0 0 0 0 0 0 0 0 0 0 0 0 0
0 0 0 0 0 0 0 0 0 0 0 0 0 0 0 0 0 0 0 0 0 0 0 0 0 0 0 0 0 0 0 0
0 0 0 0 0 0 0 0 0 0 0 0 0 0 0 0 0 0 0 0 0 0 0 0 0 0 0 0 0 0 0 0
0 0 0 0 0 0 0 0 0 0 0 0 0 0 0 0 0 0 0 0 0 0 0 0 0 0 0 0 0 0 0 0
0 0 0 0 0 0 0 0 0 0 0 0 0 0 0 0 0 0 0 0 0 0 0 0 0 0 0 0 0 0 0 0
0 0 0 0 0 0 0 0 0 0 0 0 0 0 0 0 0 0 0 0 0 0 0 0 0 0 0 0 0 0 0 0
0 0 0 0 0 0 0 0 0 0 0 0 0 0 0 0 0 0 0 0 0 0 0 0 0 0 0 0 0 0 0 0
0 0 0 0 0 0 0 0 0 0 0 0 0 0 0 0 0 0 0 0 0 0 0 0 0 0 0 0 0 0 0 0
0 0 0 0 0 0 0 0 0 0 0 0 0 0 0 0 0 0 0 0 0 0 0 0 0 0 0 0 0 0 0 0
0 0 0 0 0 0 0 0 0 0 0 0 0 0 0 0 0 0 0 0 0 0 0 0 0 0 0 0 0 0 0 0
0 0 0 0 0 0 0 0 0 0 0 0 0 0 0 0 0 0 0 0 0 0 0 0 0 0 0 0 0 0 0 0
0 0 0 0 0 0 0 0 0 0 0 0 0 0 0 0 0 0 0 0 0 0 0 0 0 0 0 0 0 0 0 0
0 0 0 0 0 0 0 0 0 0 0 0 0 0 0 0 0 0 0 0 0 0 0 0 0 0 0 0 0 0 0 0
0 0 0 0 0 0 0 0 0 0 0 0 0 0 0 0 0 0 0 0 0 0 0 0 0 0 0 0 0 0 0 0
0 0 0 0 0 0 0 0 0 0 0 0 0 0 0 0 0 0 0 0 0 0 0 0 0 0 0 0 0 0 0 0
CIN
0 0 0 0 0 -124 0 0 0 0 0 0 0 0 0 0 0 0 0 0 0 0 0 0 0 0 0 0 0 0 0 0
0 0 0 0 0 -283 -225 0 -175 0 0 0 0 0 0 0 0 0 0 0 0 0 0 0 0 0 0 0 0 0 0 0
0 0 0 0 0 0 0 0 0 0 0 0 0 0 0 0 0 0 0 0 0 0 0 0 0 0 0 0 0 0 0 0
0 0 0 0 0 0 0 0 0 0 0 0 0 0 0 0 0 0 0 0 0 0 0 0 0 0 0 0 0 0 0 0
0 0 0 0 0 0 0 0 0 0 0 0 0 0 0 0 0 0 0 0 0 0 0 0 0 0 0 0 0 0 0 0
0 0 0 0 0 0 0 0 0 0 0 0 0 0 0 0 0 0 0 0 0 0 0 0 0 0 0 0 0 0 0 0
0 0 0 0 0 0 0 0 0 0 0 0 0 0 0 0 0 0 0 0 0 0 0 0 0 0 0 0 0 0 0 0
0 0 0 0 0 0 0 0 0 0 0 0 0 0 0 0 0 0 0 0 0 0 0 0 0 0 0 0 0 0 0 0
0 0 0 0 0 0 0 0 0 0 0 0 0 0 0 0 0 0 0 0 0 0 0 0 0 0 0 0 0 0 0 0
0 0 0 0 0 0 0 0 0 0 0 0 0 0 0 0 0 0 0 0 0 0 0 0 0 0 0 0 0 0 0 0
0 0 0 0 0 0 0 0 0 0 0 0 0 0 0 0 0 0 0 0 0 0 0 0 0 0 0 0 0 0 0 0
0 0 0 0 0 0 0 0 0 0 0 0 0 0 0 0 0 0 0 0 0 0 0 0 0 0 0 0 0 0 0 0
0 0 0 0 0 0 0 0 0 0 0 0 0 0 0 0 0 0 0 0 0 0 0 0 0 0 0 0 0 0 0 0
0 0 0 0 0 0 0 0 0 0 0 0 0 0 0 0 0 0 0 0 -11 0 0 0 0 0 0 0 0 0 0 0
0 0 0 0 0 0 0 0 0 0 0 0 0 0 0 0 0 0 0 0 0 0 0 0 0 0 0 0 0 0 0 0
0 0 0 0 0 0 0 0 0 0 0 0 0 0 0 0 0 0 0 0 0 0 0 0 0 0 0 0 0 0 0 0
0 0 0 0 0 0 0 0 0 0 0 0 0 0 0 0 0 0 0 0 0 0 0 0 0 0 0 0 0 0 0 0
0 0 0 0 0 0 0 0 0 0 0 0 0 0 0 0 0 0 0 0 0 0 0 0 0 0 0 0 0 0 0 0
0 0 0 0 0 0 0 0 0 0 0 0 0 0 0 0 0 0 0 0 -10 0 0 0 0 0 0 0 0 0 0 0
Wind_Speed
20 19 17 12 9 8 7 9 10 16 16 18 19 20 21 21 23 23 23 23 24 25 25 27 29 33 35 37 37 38 39 40
17 16 14 13 12 11 10 11 15 13 15 19 20 21 22 23 23 23 24 25 25 26 28 30 33 36 37 38 38 40 40 41
16 15 15 14 13 13 13 13 14 13 15 16 18 19 20 22 24 26 25 26 27 28 30 32 34 35 36 38 39 40 39 40
13 15 16 15 15 15 15 15 15 15 16 18 19 20 22 25 26 27 27 26 27 28 30 31 33 34 36 37 38 40 42 38
13 13 13 14 14 14 15 15 15 17 17 19 22 23 25 25 25 25 27 28 29 30 31 32 33 34 37 39 39 38 38 42
12 12 12 13 13 13 15 16 18 19 20 21 23 25 25 26 27 28 28 30 31 31 31 32 34 35 37 37 37 37 37 38
10 10 12 14 15 13 15 17 19 20 20 22 25 26 28 29 31 31 31 31 31 30 31 32 34 35 35 35 36 37 36 35
9 11 13 14 17 16 17 19 19 21 23 25 27 28 30 32 34 35 34 33 32 31 32 34 34 34 34 33 34 34 33 33
11 14 15 17 16 17 19 18 21 22 24 27 28 30 33 34 34 34 33 32 32 32 33 34 34 33 33 33 33 33 31 32
7 10 11 14 15 17 18 20 22 25 27 28 30 32 33 35 34 33 33 33 34 34 34 34 34 34 33 33 32 33 32 32
11 12 13 16 16 17 21 22 24 25 26 29 31 33 34 34 33 34 35 35 34 35 35 34 34 33 32 31 31 31 30 30
14 15 17 17 19 21 22 23 26 28 30 32 34 37 37 36 35 36 37 36 35 35 34 34 34 33 31 31 29 27 27 28
15 15 17 19 22 24 26 29 32 33 32 35 39 39 39 39 40 40 39 37 35 34 34 33 36 34 31 27 24 24 25 28
15 17 18 20 23 26 29 29 32 33 34 36 38 39 40 40 41 41 40 39 36 34 33 36 36 31 24 23 22 23 26 31
16 19 19 21 25 28 28 29 32 34 35 37 39 39 39 40 42 43 42 40 37 36 35 33 29 24 21 21 22 25 29 31
18 19 21 22 25 26 28 30 33 35 38 39 38 38 39 41 43 44 43 39 36 34 33 31 26 17 19 19 20 27 31 32
19 20 22 23 25 27 29 32 36 38 39 37 37 39 41 42 43 43 40 38 36 32 27 23 20 21 18 19 24 28 30 32
20 22 23 23 25 29 32 34 37 38 37 37 38 39 41 42 42 41 39 36 30 26 24 22 22 20 20 22 26 29 30 33
21 21 22 23 27 31 33 36 37 38 39 39 38 39 41 41 41 39 35 29 26 22 22 21 20 21 22 24 26 28 31 33
Wind_Direction
314 318 325 340 355 354 357 353 353 329 350 2 12 11 10 9 4 2 1 358 354 350 348 344 339 333 330 329 328 328 327 325
338 344 354 1 2 360 353 346 338 351 359 3 0 359 3 8 6 2 358 353 351 348 343 338 335 332 331 331 329 327 326 326
6 14 16 17 14 18 3 9 13 15 9 10 5 5 4 1 0 358 357 354 351 347 341 338 336 334 333 332 331 328 327 328
17 22 20 22 30 35 30 27 25 21 15 9 4 6 360 352 348 349 350 351 348 345 343 340 337 336 334 333 331 329 325 326
6 13 21 20 34 32 26 25 16 9 6 357 351 351 349 348 347 346 346 345 343 341 339 338 337 335 333 331 330 329 327 322
28 25 14 17 12 14 10 4 360 355 355 351 349 348 349 349 347 345 342 341 341 341 340 339 337 335 334 333 331 329 327 324
24 16 360 356 355 357 354 353 349 353 354 351 350 349 347 344 343 341 340 340 340 340 340 339 338 337 335 334 333 331 328 327
6 357 351 340 335 340 345 345 351 353 349 349 347 347 345 343 340 339 338 339 340 339 339 337 336 336 335 334 333 332 330 327
347 338 340 337 337 336 339 342 346 347 345 344 344 343 342 342 341 340 339 339 338 338 336 335 334 334 333 332 332 331 330 328
12 355 355 352 348 343 345 343 342 339 340 340 340 341 340 340 340 342 340 337 335 333 334 333 333 332 331 331 330 330 330 329
27 19 4 356 354 352 346 344 341 340 340 339 340 339 339 340 340 338 336 333 333 333 333 333 332 331 330 330 329 330 329 331
20 15 6 359 353 349 347 344 341 339 338 339 338 338 338 338 335 334 333 333 332 332 332 333 333 332 331 330 331 334 336 337
16 15 9 357 349 345 343 340 338 338 338 337 336 336 337 337 336 335 334 332 331 331 332 332 332 331 331 334 337 341 342 341
10 7 3 356 350 345 342 342 341 341 341 340 341 340 340 339 340 339 337 334 332 330 330 331 333 335 337 341 342 344 343 339
359 358 358 353 346 343 343 344 344 343 343 341 340 341 341 341 341 340 338 335 333 333 333 335 337 339 343 347 344 343 341 340
353 352 352 351 347 346 345 343 342 341 339 339 340 341 342 341 340 339 339 340 340 339 339 340 342 353 350 349 349 344 341 340
348 348 347 347 347 345 344 341 339 339 339 341 341 341 340 340 340 342 342 342 341 344 351 359 360 355 356 352 347 345 345 343
342 342 345 347 345 342 341 340 340 340 342 341 340 340 339 340 342 343 343 344 350 354 357 358 358 4 4 358 352 349 348 345
340 342 343 345 343 342 342 342 343 342 339 338 339 340 340 342 343 343 345 348 349 353 354 358 1 2 2 359 356 353 350 348